Flag for Austria Weather past 2 weeks in Hollabrunn, Lower Austria, Austria

Now
34 °F

Chilly.


Feels Like: 29 °F
Forecast: 27 / 37 °F
Wind: 6 mph from Northwest

Location: Retz

Current Time: Jan 28, 2015 at 12:41:38 AM

Latest Report: Jan 27, 2015 at 11:00 PM


Visibility: N/A

Pressure: 30.09 "Hg

Humidity: 82%

Dew point: 29 °F

Location of HollabrunnLocation

Historic Weather in Hollabrunn — Graph

°F

Hollabrunn temperature yesterday

Maximum temperature yesterday: 39 °F (at 1:00 PM)
Minimum temperature yesterday: 28 °F (at 12:00 AM)
Average temperature yesterday: 33 °F

Past Weeks' High & Low Weather Summary

 TemperatureHumidityPressure
High50 °F (Jan 13, 3:00 PM)100% (Jan 20, 3:00 PM)30.35 "Hg (Jan 20, 3:00 PM)
Low28 °F (Jan 27, 12:00 AM)56% (Jan 13, 4:00 PM)29.75 "Hg (Jan 17, 5:00 AM)
Average36 °F87%30.03 "Hg
* Reported Jan 12 11:00 PM — Jan 27 11:00 PM, Hollabrunn, Weather by CustomWeather, © 2014

Note: Actual official high and low records may vary slightly from our data, if they occured in-between our weather recording intervals... More about our weather records

Advertising

Hollabrunn weather history for previous 24 hours

 ConditionsComfort  
Time TempWeatherWind HumidityBarometerVisibility
11:00 PM
Jan 27
34 °FChilly.6 mph82%30.09 "HgN/A
10:00 PM34 °FChilly.6 mph82%30.08 "HgN/A
9:00 PM33 °FChilly.5 mph84%30.08 "HgN/A
8:00 PM35 °FChilly.3 mph82%30.07 "HgN/A
7:00 PM34 °FPassing clouds.2 mph84%30.06 "Hg7 mi
6:00 PM34 °FChilly.2 mph82%30.05 "HgN/A
5:00 PM36 °FChilly.3 mph77%30.02 "HgN/A
4:00 PM38 °FChilly.6 mph74%30.00 "HgN/A
1:00 PM39 °FPassing clouds.8 mph79%29.98 "Hg19 mi
12:00 PM38 °FChilly.9 mph80%29.97 "HgN/A
11:00 AM37 °FChilly.7 mph81%29.98 "HgN/A
10:00 AM34 °FChilly.7 mph86%29.98 "HgN/A
9:00 AM34 °FChilly.7 mph87%29.97 "HgN/A
8:00 AM33 °FChilly.8 mph94%29.96 "HgN/A
7:00 AM29 °FLow clouds.5 mph99%29.96 "Hg2 mi
5:00 AM28 °FFog.2 mph98%29.98 "HgN/A
4:00 AM28 °FFog.2 mph95%30.00 "HgN/A
3:00 AM28 °FChilly.3 mph92%30.02 "HgN/A
2:00 AM28 °FChilly.2 mph88%30.04 "HgN/A
1:00 AM28 °FChilly.3 mph86%30.06 "HgN/A
12:00 AM28 °FChilly.5 mph90%30.09 "HgN/A
Weather by CustomWeather, © 2014

See weather overviewHow to use our weather pages